[[{"header":{"parameterUnit":"m.s-1","parameterCategory":1,"la1":30.2991,"la2":30.254,"lo1":-89.0895,"lo2":-89.0444,"dy":0.0017,"dx":0.0017,"nx":28,"ny":28,"refTime":"2025-06-18T09:00:00:Z","depth":0,"parameterNumber":2,"parameterNumberName":"U-component_of_WINDS"},"data":[0,0,0,0,0,0,0,0,0,0,0,0,0,0,0,0,0,0,0,0,0,0,0,0,0,0,0,0,0,0,0,0,0,0,0,0,0,0,0,0,0,0,0,0,0,0,0,0,0,0,0,0,0,0,0,0,0,0,5.2118,5.212,0,5.2322,5.2324,5.2327,5.2271,5.2267,5.2263,5.2259,5.2471,5.248,5.249,0,0,0,0,0,0,0,0,0,0,0,0,0,5.1684,5.1692,5.2118,5.2121,5.2123,5.2322,5.2324,5.2327,5.2271,5.2266,5.2261,5.2257,5.2468,5.2479,5.2491,0,0,0,0,0,0,0,0,0,0,0,0,0,5.1879,5.1695,5.2118,5.2119,5.2121,5.2321,5.2324,5.2328,5.2273,5.2266,5.226,5.2254,5.2464,5.2478,5.2492,5.2704,0,0,5.2536,5.2542,0,0,0,0,0,0,0,0,5.1868,5.1895,5.2116,5.212,5.2122,5.2264,5.2249,5.2454,5.2274,5.2215,5.2259,5.2251,5.2408,5.2426,5.2478,5.2714,5.2723,5.2537,5.2546,5.2552,5.2556,0,0,0,0,0,0,0,5.1854,5.1886,5.2199,5.212,5.2123,5.2111,5.2132,5.2288,5.2344,5.222,5.2216,5.2241,5.2408,5.2465,5.2483,5.2726,5.2537,5.2549,5.2558,5.2564,5.3145,5.3151,0,0,0,0,0,0,5.1838,5.1875,5.2192,5.2205,5.1977,5.2124,5.2147,5.2225,5.2342,5.2354,5.2246,5.2238,5.2443,5.2466,5.249,5.2744,5.2552,5.2565,5.2573,5.3138,5.3146,5.3154,0,0,0,0,0,0,5.1829,5.1867,5.2184,5.2039,5.2078,5.2138,5.2226,5.2232,5.2289,5.2362,5.2372,5.2293,5.2439,5.247,5.2651,5.2751,5.2572,5.2585,5.313,5.3141,5.315,5.3256,0,0,0,0,0,0,5.1817,5.1864,5.1944,5.2041,5.2086,5.2341,5.2232,5.2241,5.2313,5.2304,5.2409,5.242,5.2437,5.263,5.2665,5.2767,5.2596,5.3121,5.3135,5.3147,5.3243,5.3268,5.3289,0,0,0,0,0,5.1802,5.1967,5.1949,5.1987,5.2188,5.2347,5.2373,5.2387,5.2321,5.2403,5.245,5.2417,5.2735,5.2649,5.2688,5.2796,5.3115,5.3131,5.3146,5.3233,5.3263,5.3289,0,0,0,0,0,0,5.1882,5.198,5.1961,5.2162,5.2246,5.2337,5.244,5.2419,5.2525,5.2512,5.2527,5.2552,5.2736,5.2784,5.2687,5.3007,5.2915,5.2939,5.2968,5.2998,5.302,5.3004,5.2607,0,0,0,0,0,5.1923,5.2043,5.2122,5.2293,5.2336,5.2381,5.2451,5.2455,5.2543,5.2579,5.2639,5.2727,5.2846,5.2925,5.3039,5.325,5.3272,5.3344,5.3367,5.3386,5.3406,5.3521,5.3553,5.3205,5.3205,5.3204,0,0,5.201,5.2078,5.2153,5.2311,5.2376,5.25,5.2411,5.2547,5.2639,5.26,5.2773,5.2821,5.292,5.3116,5.3206,5.3162,5.3507,5.3406,5.342,5.343,5.354,5.3573,5.3602,5.3215,5.3213,5.3212,0,0,5.223,5.2294,5.2442,5.2509,5.2609,5.2638,5.2674,5.2768,5.2797,5.2971,5.2944,5.3055,5.3261,5.3332,5.3395,5.3642,5.3616,5.3679,5.38,5.3911,5.3938,5.3963,5.405,5.4081,5.37,5.37,5.37,0,5.2325,5.251,5.2521,5.2659,5.2729,5.2698,5.2848,5.2913,5.3046,5.3096,5.3045,5.3301,5.3366,5.3578,5.3638,5.3691,5.3732,5.3667,5.3933,5.3958,5.3981,5.4064,5.4097,5.3707,5.3706,5.3705,5.3705,0,5.2621,5.275,5.2858,5.2985,5.3068,5.3211,5.3245,5.3327,5.3324,5.3359,5.3536,5.3613,5.3741,5.3792,5.3792,5.4005,5.3974,5.3929,5.3837,5.4021,5.4099,5.4131,5.3717,5.3714,5.3712,5.3711,0,0,5.2898,5.3029,5.3068,5.3125,5.3233,5.3333,5.3475,5.3599,5.3669,5.3763,5.3882,5.4056,5.4014,5.4086,5.4093,5.4191,5.438,5.4133,5.4136,5.4175,5.4619,5.4652,5.4688,5.4364,5.437,5.4375,5.461,0,5.3127,5.3375,5.339,5.3615,5.3734,5.3706,5.383,5.391,5.3946,5.4053,5.4093,5.4216,5.4151,5.4194,5.429,5.4337,5.4469,5.432,5.4475,5.448,5.4449,5.4729,5.4765,5.4983,5.4641,5.4646,5.465,0,5.3427,5.3527,5.3764,5.3854,5.3904,5.4015,5.4129,5.4232,5.4322,5.4342,5.4422,5.4414,5.4561,5.4465,5.4666,5.4564,5.4629,5.4662,5.467,5.4684,5.4575,5.475,5.5053,5.5085,5.4698,5.4695,5.4691,0,5.3604,5.3798,5.3964,5.4014,5.4123,5.4202,5.4251,5.4335,5.4408,5.4509,5.4557,5.4674,5.4738,5.4829,5.4854,5.4782,5.5055,5.4961,5.5075,5.5075,5.5133,5.5129,5.545,5.5177,5.5177,5.5176,5.5175,0,5.3857,5.4003,5.4045,5.4147,5.431,5.4325,5.4486,5.4531,5.4605,5.4716,5.47,5.4805,5.4832,5.4942,5.4963,5.5126,5.5156,5.5175,5.5179,5.5176,5.5173,5.5218,5.5202,5.5185,5.5183,5.5181,5.518,0,5.4081,5.4115,5.4294,5.4383,5.4408,5.4524,5.46,5.4699,5.4732,5.4873,5.4907,5.496,5.5089,5.5123,5.5278,5.5291,5.5483,5.5473,5.5452,5.5451,5.5563,5.5551,5.5922,5.5971,5.5668,5.5671,5.5673,0,5.424,5.4351,5.4451,5.4523,5.4575,5.4692,5.4766,5.4786,5.4864,5.4975,5.5061,5.5187,5.5288,5.5495,5.5549,5.5666,5.5658,5.578,5.5676,5.5669,5.5659,5.5651,5.5662,5.58,5.5803,5.5806,5.5808,0,5.4517,5.4528,5.4635,5.4748,5.4837,5.4927,5.5014,5.5075,5.5107,5.5195,5.5326,5.5404,5.5561,5.5687,5.5805,5.5857,5.5838,5.584,5.5872,5.587,5.5852,5.5862,5.5504,5.5831,5.5829,5.5827,5.5826,5.5825,5.4713,5.481,5.4894,5.5014,5.5081,5.5162,5.5258,5.5303,5.5412,5.5539,5.5545,5.5686,5.5774,5.5931,5.5989,5.6101,5.6064,5.6111,5.6123,5.6134,5.6143,5.5836,5.6123,5.6122,5.6121,5.6121,5.612,0,5.4988,5.5041,5.5151,5.5271,5.5365,5.5338,5.5432,5.5513,5.5637,5.5719,5.5819,5.5968,5.609,5.6152,5.6273,5.635,5.6344,5.6381,5.6375,5.6387,5.6169,5.6128,5.6383,5.6383,5.6383,5.6383,5.6383,5.6383,5.5142,5.5304,5.5325,5.552,5.5572,5.5709,5.5765,5.584,5.5905,5.6072,5.6172,5.6212,5.6286,5.6412,5.6522,5.6537,5.6582,5.6623,5.6634,5.6429,5.6402,5.6377,5.6338,5.6633,5.6633,5.6841,5.6843,5.6845]},{"header":{"parameterUnit":"m.s-1","parameterCategory":1,"la1":30.2991,"la2":30.254,"lo1":-89.0895,"lo2":-89.0444,"dy":0.0017,"dx":0.0017,"nx":28,"ny":28,"refTime":"2025-06-18T09:00:00:Z","depth":0,"parameterNumber":3,"parameterNumberName":"V-component_of_WINDS"},"data":[0,0,0,0,0,0,0,0,0,0,0,0,0,0,0,0,0,0,0,0,0,0,0,0,0,0,0,0,0,0,0,0,0,0,0,0,0,0,0,0,0,0,0,0,0,0,0,0,0,0,0,0,0,0,0,0,0,0,-0.1008,-0.1008,0,-0.1031,-0.1031,-0.1031,-0.1068,-0.1068,-0.1069,-0.107,-0.1091,-0.1091,-0.1091,0,0,0,0,0,0,0,0,0,0,0,0,0,-0.0996,-0.0996,-0.1008,-0.1008,-0.1009,-0.1031,-0.1031,-0.1031,-0.1068,-0.1068,-0.1069,-0.107,-0.1091,-0.1091,-0.1091,0,0,0,0,0,0,0,0,0,0,0,0,0,-0.1008,-0.0996,-0.1008,-0.103,-0.1032,-0.1031,-0.1031,-0.1031,-0.1067,-0.1068,-0.1069,-0.107,-0.1091,-0.1091,-0.1091,-0.107,0,0,-0.1091,-0.1091,0,0,0,0,0,0,0,0,-0.1007,-0.1008,-0.1026,-0.1028,-0.103,-0.1048,-0.1035,-0.1044,-0.1067,-0.1054,-0.107,-0.1071,-0.1076,-0.1077,-0.1079,-0.1071,-0.1072,-0.1091,-0.1091,-0.1091,-0.1091,0,0,0,0,0,0,0,-0.1006,-0.1007,-0.1017,-0.1026,-0.1029,-0.1038,-0.1041,-0.1037,-0.1059,-0.1055,-0.1058,-0.106,-0.1077,-0.1079,-0.108,-0.1073,-0.1091,-0.1091,-0.1091,-0.1091,-0.105,-0.1049,0,0,0,0,0,0,-0.1002,-0.1006,-0.1016,-0.1018,-0.1021,-0.1037,-0.104,-0.1041,-0.1059,-0.1063,-0.1059,-0.1062,-0.1079,-0.108,-0.1081,-0.1058,-0.1091,-0.1091,-0.1091,-0.1051,-0.105,-0.1049,0,0,0,0,0,0,-0.1002,-0.1003,-0.1015,-0.1013,-0.1015,-0.1036,-0.1037,-0.1041,-0.1043,-0.1062,-0.1066,-0.1057,-0.1079,-0.1081,-0.1073,-0.1059,-0.1091,-0.1091,-0.1052,-0.1051,-0.1049,-0.1011,0,0,0,0,0,0,-0.1001,-0.1002,-0.0995,-0.1012,-0.1015,-0.1007,-0.1036,-0.1041,-0.1043,-0.1046,-0.1061,-0.1064,-0.108,-0.1073,-0.1073,-0.1059,-0.109,-0.1054,-0.1052,-0.105,-0.1014,-0.1009,-0.1004,0,0,0,0,0,-0.1001,-0.0983,-0.0994,-0.0995,-0.1006,-0.1007,-0.1008,-0.1027,-0.1041,-0.1034,-0.1047,-0.1064,-0.1061,-0.1072,-0.1072,-0.1058,-0.1055,-0.1052,-0.105,-0.1016,-0.101,-0.1004,0,0,0,0,0,0,-0.0962,-0.0986,-0.0998,-0.0986,-0.0994,-0.1013,-0.1004,-0.102,-0.1023,-0.1026,-0.105,-0.1053,-0.1042,-0.105,-0.1061,-0.104,-0.106,-0.1058,-0.1035,-0.1029,-0.1024,-0.1022,-0.109,0,0,0,0,0,-0.0953,-0.0951,-0.0972,-0.0958,-0.0962,-0.0982,-0.0983,-0.0997,-0.1006,-0.101,-0.1022,-0.1029,-0.103,-0.103,-0.1032,-0.1016,-0.1019,-0.1007,-0.1002,-0.0998,-0.0995,-0.0987,-0.0981,-0.1041,-0.1041,-0.1041,0,0,-0.0932,-0.0945,-0.0942,-0.0951,-0.0959,-0.0957,-0.0985,-0.0981,-0.098,-0.1009,-0.1002,-0.1012,-0.1022,-0.101,-0.1005,-0.1016,-0.098,-0.0995,-0.0991,-0.0991,-0.0984,-0.0978,-0.0973,-0.1039,-0.104,-0.104,0,0,-0.0893,-0.0903,-0.0893,-0.0901,-0.0913,-0.0927,-0.0924,-0.0941,-0.0948,-0.0942,-0.0964,-0.0963,-0.0964,-0.097,-0.0974,-0.0939,-0.0955,-0.0939,-0.0913,-0.0905,-0.09,-0.0896,-0.0883,-0.0878,-0.0936,-0.0936,-0.0936,0,-0.0865,-0.0863,-0.0886,-0.0881,-0.0884,-0.0912,-0.0902,-0.0908,-0.092,-0.0921,-0.0934,-0.0936,-0.0945,-0.0935,-0.0926,-0.0928,-0.0926,-0.0936,-0.0899,-0.0895,-0.0892,-0.088,-0.0875,-0.0934,-0.0934,-0.0935,-0.0935,0,-0.0829,-0.0827,-0.0818,-0.0829,-0.0832,-0.0824,-0.0845,-0.0845,-0.0859,-0.0871,-0.0865,-0.0877,-0.0882,-0.0881,-0.0895,-0.0873,-0.0879,-0.0895,-0.0916,-0.0884,-0.0872,-0.0868,-0.0931,-0.0932,-0.0932,-0.0933,0,0,-0.0765,-0.079,-0.0786,-0.0791,-0.0807,-0.0806,-0.08,-0.0806,-0.0805,-0.0813,-0.0808,-0.0809,-0.0824,-0.0828,-0.0843,-0.0836,-0.0807,-0.0853,-0.0853,-0.0843,-0.0783,-0.077,-0.0764,-0.0818,-0.0817,-0.0817,-0.0782,0,-0.0728,-0.0719,-0.074,-0.0726,-0.0725,-0.0752,-0.0747,-0.0756,-0.0768,-0.0768,-0.0781,-0.0781,-0.0801,-0.0804,-0.0798,-0.0811,-0.0795,-0.0814,-0.0813,-0.0813,-0.0808,-0.0759,-0.0745,-0.0711,-0.0778,-0.0777,-0.0777,0,-0.0684,-0.069,-0.0676,-0.0694,-0.0694,-0.0689,-0.0696,-0.0696,-0.0707,-0.0716,-0.0721,-0.0739,-0.0734,-0.0756,-0.075,-0.0762,-0.0764,-0.077,-0.0769,-0.0769,-0.0792,-0.0756,-0.0701,-0.0695,-0.077,-0.0771,-0.0771,0,-0.0637,-0.0642,-0.0635,-0.0639,-0.0659,-0.0655,-0.0663,-0.0676,-0.0678,-0.0684,-0.0686,-0.0691,-0.0694,-0.0697,-0.0716,-0.073,-0.0707,-0.073,-0.0714,-0.0713,-0.0707,-0.0707,-0.065,-0.0709,-0.0709,-0.0709,-0.071,0,-0.0594,-0.0584,-0.0614,-0.0609,-0.0599,-0.0623,-0.0613,-0.0624,-0.0635,-0.0632,-0.0656,-0.0653,-0.0679,-0.0679,-0.0694,-0.0686,-0.0687,-0.0694,-0.0698,-0.0691,-0.069,-0.0691,-0.0694,-0.0708,-0.0708,-0.0709,-0.0709,0,-0.0539,-0.0559,-0.0553,-0.0573,-0.0578,-0.057,-0.0587,-0.0583,-0.0597,-0.0594,-0.0595,-0.0616,-0.0618,-0.0638,-0.0643,-0.0653,-0.0639,-0.0648,-0.0635,-0.0637,-0.062,-0.0621,-0.0561,-0.0554,-0.0618,-0.0618,-0.0617,0,-0.0509,-0.0503,-0.0523,-0.0523,-0.053,-0.0531,-0.0534,-0.0557,-0.0559,-0.0572,-0.0566,-0.057,-0.0574,-0.0575,-0.0591,-0.0595,-0.0604,-0.0583,-0.0604,-0.0598,-0.0602,-0.0602,-0.0601,-0.0577,-0.0576,-0.0576,-0.0575,0,-0.0454,-0.0465,-0.0468,-0.0474,-0.0477,-0.0483,-0.0491,-0.049,-0.0516,-0.0517,-0.0519,-0.0522,-0.0528,-0.0531,-0.0539,-0.0547,-0.0565,-0.0569,-0.0565,-0.0557,-0.055,-0.0553,-0.0621,-0.0569,-0.057,-0.057,-0.0571,-0.0571,-0.0411,-0.0406,-0.0419,-0.0422,-0.0431,-0.0438,-0.0435,-0.045,-0.0452,-0.0459,-0.0473,-0.0473,-0.0485,-0.0497,-0.0504,-0.0504,-0.0515,-0.051,-0.0508,-0.0506,-0.0502,-0.0551,-0.0506,-0.0506,-0.0506,-0.0506,-0.0506,0,-0.0356,-0.0366,-0.0369,-0.0379,-0.0381,-0.04,-0.0409,-0.041,-0.0409,-0.042,-0.0423,-0.0426,-0.0429,-0.0446,-0.0451,-0.0448,-0.0457,-0.0449,-0.0448,-0.045,-0.0493,-0.0495,-0.0442,-0.0442,-0.0442,-0.0442,-0.0442,-0.0442,-0.0327,-0.032,-0.0333,-0.033,-0.0341,-0.0341,-0.0345,-0.0352,-0.036,-0.0362,-0.0365,-0.0377,-0.0389,-0.0396,-0.04,-0.0405,-0.0405,-0.0394,-0.0402,-0.0441,-0.0447,-0.0453,-0.0455,-0.0394,-0.0394,-0.0359,-0.0358,-0.0358]}]]